Location: Arclight Observatory
(36.5667°N, 87.3333°W)
Time: 12:29:28
(UTC-05:00)

Daily predictions for brighter satellites

Satellite Brightness Start Highest point End
(mag) Time Altitude Azimuth Time Altitude Azimuth Time Altitude Azimuth
SL-16 R/B 3.3 18:22:14 10° NNW 18:27:43 51° WSW 18:33:09 10° S
Cosmos 1703 3.3 18:27:51 10° N 18:31:43 57° E 18:35:32 10° SSE
PSLV R/B 4.4 18:31:13 10° SSW 18:33:53 26° SSE 18:36:32 10° E
Cosmos 2366 rocket 4.2 18:28:30 10° S 18:34:43 81° W 18:40:55 10° N
Cosmos 1908 3.6 18:31:21 10° SSE 18:35:04 43° E 18:38:48 10° NNE
RESURS DK-1 2.3 18:33:30 10° NNW 18:37:38 71° ENE 18:41:44 10° SSE
COSMO-SKYMED 1 2.7 18:34:31 10° NNE 18:38:46 53° E 18:43:00 10° S
Cosmos 2237 4.4 18:33:23 10° N 18:38:56 49° ENE 18:44:26 10° SE
Cosmos 1626 2.3 18:35:46 10° N 18:39:30 80° W 18:43:14 10° S
Ariane Rocket 4.0 18:35:36 10° S 18:40:33 52° W 18:45:33 10° NNW
Atlas Centaur 2 3.0 18:39:01 10° WSW 18:42:46 31° S 18:47:17 10° SE
Cosmos 2237 Rocket 4.0 18:40:59 10° NNE 18:43:17 12° NE 18:45:24 10° ENE
Gbstr 26 Del rocket 4.5 18:41:27 10° NNW 18:45:53 31° NNE 18:50:40 12° E
Cosmos 2227 Rocket 3.6 18:45:35 10° SE 18:49:01 17° E 18:52:06 11° ENE
Cosmos 2151 3.0 18:46:00 10° N 18:50:18 84° W 18:54:31 10° S
Cosmos 1805 Rocket 4.4 18:46:39 10° NNE 18:50:25 27° ENE 18:54:11 10° SE
Cosmos 2058 3.3 18:53:01 10° NNW 18:57:10 70° W 19:01:16 10° S
YAOGAN 1 2.9 18:53:48 10° S 18:58:05 70° WSW 19:02:26 10° NNW
Cosmos 1400 Rocket 4.1 18:55:10 10° NNW 18:59:00 45° W 19:02:45 10° SSW
ALOS 2.5 18:56:58 10° SE 19:01:25 46° ENE 19:05:53 10° N
Cosmos 1300 3.6 18:58:44 10° SSE 19:01:57 26° E 19:05:10 10° NNE
Cosmos 1269 Rocket 4.0 18:57:38 10° S 19:02:51 69° ESE 19:08:06 10° NNE
GRACE-2 3.8 19:00:25 10° S 19:02:57 73° W 19:05:31 10° N
Cosmos 2360 Rocket 2.7 18:59:20 10° NNW 19:04:57 64° WSW 19:10:32 10° S
Cosmos 1633 Rocket 4.3 19:01:50 10° NNE 19:05:12 21° ENE 19:06:14 19° E
DMSP B5D1-3 4.5 19:01:42 10° NNE 19:06:49 65° ESE 19:11:55 10° S
GRACE-1 4.4 19:05:15 10° S 19:07:46 54° W 19:10:19 10° N
MOS 1 4.4 19:02:41 10° SSE 19:08:21 84° WSW 19:14:04 10° NNW
Cosmos 1821 Rocket 3.9 19:04:41 10° S 19:10:43 63° E 19:16:53 10° NNE
Cosmos 1934 Rocket 4.2 19:04:48 10° SSE 19:10:48 47° E 19:16:51 10° NNE
SPOT 3 Rocket 3.5 19:06:49 10° SSE 19:12:00 87° ENE 19:17:15 10° NNW
Cosmos 1000 Rocket 4.4 19:06:05 10° N 19:12:15 64° E 19:18:20 10° SSE
Abrixas 3.5 19:12:49 10° W 19:14:41 24° NNW 19:15:20 21° N
Aureole 2 Rocket 3.3 19:11:02 10° N 19:14:43 36° ENE 19:16:41 22° ESE
COSMOS 2428 2.6 19:09:58 10° NNW 19:15:39 67° ENE 19:21:17 10° SSE
Cosmos 2239 Rocket 4.4 19:10:38 10° S 19:16:42 71° E 19:22:50 10° NNE
Cosmos 2219 3.2 19:12:15 10° SSW 19:18:00 88° WNW 19:23:47 10° NNE
Hubble Space Telescope 2.7 19:15:41 10° SSW 19:18:21 17° SSE 19:19:41 15° SE
Cosmos 2333 Rocket 2.8 19:13:17 10° N 19:18:33 36° ENE 19:21:36 22° ESE
Cosmos 1452 Rocket 4.3 19:13:28 10° NNW 19:18:35 55° WSW 19:23:41 10° S
CZ-4 R/B 3.9 19:15:10 10° SSW 19:18:41 26° W 19:22:12 10° NW
FENGYUN 3A 3.6 19:13:46 10° SSE 19:19:07 70° ENE 19:24:32 10° N
BREEZE-M DEB (TANK) 4.5 19:03:38 10° WNW 19:22:58 45° N 19:26:20 24° ENE
Cosmos 2221 3.2 19:19:37 10° SSW 19:23:51 56° W 19:28:08 10° N
Iridium 4 Rocket 3.7 19:18:38 10° S 19:24:10 89° W 19:30:04 10° N
BREEZE-M R/B 2.1 19:22:05 10° SW 19:24:33 59° SE 19:25:04 48° E
Delta 2 Rocket 3.1 19:21:28 10° W 19:25:18 67° S 19:26:27 39° ESE
Cosmos 2297 Rocket 2.9 19:21:22 10° SSE 19:26:11 29° ESE 19:27:03 28° E
Cosmos 494 Rocket 4.2 19:22:23 10° S 19:27:10 43° ESE 19:30:45 17° NE
Cosmos 2098 Rocket 3.4 19:22:51 10° S 19:27:16 85° W 19:32:58 10° N
Cosmos 2084 4.3 19:28:55 10° N 19:31:39 27° NNE 19:31:39 27° NNE
Meteor 2-10 3.8 19:29:37 10° S 19:34:35 69° E 19:39:40 10° NNE
Cosmos 1110 Rocket 4.4 19:30:22 10° N 19:35:23 41° ENE 19:36:36 36° E
Cosmos 2082 4.2 19:30:27 10° SSE 19:35:35 35° ESE 19:36:16 34° E
Meteor 2-2 Rocket 4.3 19:30:47 10° SSE 19:36:17 52° E 19:41:45 10° NNE
BREEZE-M DEB (TANK) 4.2 19:30:02 10° WNW 19:39:01 34° NNW 19:41:01 23° NE
Cosmos 1726 2.8 19:35:59 10° SSW 19:39:35 53° W 19:43:13 10° N
FengYun 1-2 T 4.1 19:36:37 10° SSE 19:42:03 65° ENE 19:47:29 10° N
ASTRO E2 4.4 19:39:37 10° WSW 19:42:53 24° SSW 19:44:03 21° S
Cosmos 2123 Rocket 3.9 19:37:45 10° N 19:43:58 64° E 19:50:12 10° SSE
Cosmos 1605 Rocket 3.9 19:39:12 10° S 19:45:10 59° E 19:51:08 10° NNE
Cosmos 2219 Rocket 2.0 19:46:41 10° NNW 19:52:19 83° ENE 19:55:32 27° SSE
Cosmos 2251 Rocket 3.4 19:51:01 10° S 19:56:11 60° ESE 19:56:38 58° E
DELTA 2 R/B (1) 4.2 19:54:48 10° WNW 20:00:11 50° SSW 20:01:54 37° SSE
Resurs 01 Rocket 4.1 20:11:20 11° N 20:11:20 11° N 20:11:32 10° N
MOS 1-B Rocket 3.8 20:09:36 62° ENE 20:09:36 62° ENE 20:15:28 10° N
CZ-4C R/B 3.7 20:04:53 10° WSW 20:09:31 31° NW 20:14:44 10° NNE
NOSS 0 Rocket 3.8 20:03:49 10° NNW 20:10:01 85° ENE 20:11:40 52° SSE
Sich 1 4.0 20:10:07 10° NNW 20:14:20 47° W 20:18:33 10° SSW
H-2A R/B 4.0 20:19:07 39° WSW 20:19:15 39° W 20:22:57 10° NNW
BREEZE M DEB (TANK) 4.4 20:10:17 10° WNW 20:22:58 47° NNE 20:23:10 47° NNE
Cosmos 2237 Rocket 2.4 20:22:27 10° NNW 20:27:17 65° NNW 20:27:17 65° NNW
Cosmos 1331 Rocket 4.3 20:24:36 10° NNW 20:29:11 62° WNW 20:29:11 62° WNW
Atlas Centaur 2 4.0 20:28:04 10° WSW 20:31:19 17° SSW 20:31:24 17° SSW
Cosmos 2227 Rocket 2.7 20:26:56 10° SW 20:32:29 58° WNW 20:34:03 43° NNW
USA 267 3.1 20:32:23 82° E 20:32:39 85° SE 20:39:11 10° SW
Gbstr 26 Del rocket 4.0 20:27:46 10° NW 20:33:12 66° SW 20:33:16 66° SW
SL-16 R/B 4.0 20:34:50 10° N 20:36:39 20° N 20:36:39 20° N
CZ-3A R/B 4.3 20:42:29 10° NW 20:56:32 48° NNE 20:56:32 48° NNE
Cosmos 2333 Rocket 3.9 20:57:47 10° NW 21:02:38 29° WSW 21:03:41 27° WSW
Centaur D AC-28 4.0 21:00:11 10° SW 21:42:12 - E 21:03:29 40° SSW
Centaur D AC-28 4.0 21:00:11 10° SW 21:03:28 39° SSW 21:03:28 39° SSW
Centaur D AC-28 4.0 21:00:10 10° SW 21:42:10 - E 21:03:28 39° SSW
Centaur D AC-28 4.0 21:00:11 10° SW 21:42:11 - E 21:03:28 39° SSW
Centaur D AC-28 4.0 21:00:10 10° SW 21:42:11 - E 21:03:29 39° SSW
Centaur D AC-28 4.0 21:00:11 10° SW 21:42:11 - E 21:03:29 40° SSW
Cosmos 2297 Rocket 3.8 21:04:58 10° SW 21:08:59 31° W 21:08:59 31° W
